This is the latest recevied weather packets stored in our database for station/object LX2MT-13. If no packets are shown the sender has not sent any weather packets the latest 10 day(s).
| Time | Temp. | Humidity | Pressure | Rain* | Wind** | Luminosity | Snow |
|---|---|---|---|---|---|---|---|
| 1777636525 | 28.89° C | 17% | 1025.1 hPa | - | - | - | - |
| 1777632925 | 28.89° C | 17% | 1025.8 hPa | - | - | - | - |
| 1777629325 | 29.44° C | 19% | 1026.1 hPa | - | - | - | - |
| 1777625725 | 29.44° C | 19% | 1026.1 hPa | - | - | - | - |
| 1777622125 | 28.89° C | 20% | 1026.3 hPa | - | - | - | - |
| 1777618525 | 28.33° C | 21% | 1026 hPa | - | - | - | - |
| 1777614925 | 28.33° C | 21% | 1026.2 hPa | - | - | - | - |
| 1777611325 | 28.33° C | 20% | 1026 hPa | - | - | - | - |
| 1777607725 | 28.33° C | 20% | 1025.9 hPa | - | - | - | - |
| 1777604124 | 28.33° C | 20% | 1026 hPa | - | - | - | - |
| 1777600523 | 28.33° C | 20% | 1026.1 hPa | - | - | - | - |
| 1777596923 | 28.33° C | 20% | 1026.2 hPa | - | - | - | - |
| 1777593323 | 28.89° C | 20% | 1026.5 hPa | - | - | - | - |
| 1777589723 | 28.89° C | 20% | 1026.4 hPa | - | - | - | - |
| 1777586123 | 28.33° C | 19% | 1026.4 hPa | - | - | - | - |
| 1777582523 | 28.33° C | 19% | 1026.1 hPa | - | - | - | - |
| 1777578923 | 27.22° C | 18% | 1025.9 hPa | - | - | - | - |
| 1777575323 | 27.22° C | 17% | 1025 hPa | - | - | - | - |
| 1777571723 | 27.78° C | 16% | 1024.6 hPa | - | - | - | - |
| 1777568123 | 28.33° C | 15% | 1024.7 hPa | - | - | - | - |
| 1777564523 | 28.33° C | 15% | 1024.8 hPa | - | - | - | - |
| 1777560923 | 28.33° C | 16% | 1025.1 hPa | - | - | - | - |
| 1777557323 | 28.33° C | 15% | 1025.4 hPa | - | - | - | - |
| 1777553723 | 28.33° C | 16% | 1025.4 hPa | - | - | - | - |
| 1777550122 | 28.89° C | 17% | 1025.7 hPa | - | - | - | - |
* Rain since midnight (hover to see other rain measurements)
** Current wind speed in m/s (hover to see current wind gust speed)